• In Hungary
  • List of Countries
  • For 7 days
  • Water Temperature
  • Satellite Maps
  • Weather Map
  • News
  • Weather Widgets
  • user-avatar
    Login

    Hourly Weather Kabul

    Today, 20 November, Monday

    Time Temperature Precipitation Wind Pressure Humidity
    00:00 +4°C° 0 mm 1 mps 609 mmHg 24%
    01:00 +3°C° 0 mm 1 mps 609 mmHg 23%
    02:00 +3°C° 0 mm 1 mps 608 mmHg 23%
    03:00 +2°C° 0 mm 1 mps 608 mmHg 23%
    04:00 +2°C° 0 mm 1 mps 608 mmHg 23%
    05:00 +2°C° 0 mm 1 mps 608 mmHg 22%
    06:00 +2°C° 0 mm 1 mps 608 mmHg 22%
    07:00 +3°C° 0 mm 1 mps 608 mmHg 21%
    08:00 +3°C° 0 mm 1 mps 609 mmHg 20%
    09:00 +5°C° 0 mm 1 mps 609 mmHg 17%
    10:00 +7°C° 0 mm 1 mps 610 mmHg 15%
    11:00 +10°C° 0 mm 1 mps 611 mmHg 12%
    12:00 +10°C° 0 mm 1 mps 611 mmHg 12%
    13:00 +11°C° 0 mm 1 mps 611 mmHg 11%
    14:00 +11°C° 0 mm 1 mps 611 mmHg 11%
    15:00 +10°C° 0 mm 1 mps 610 mmHg 12%
    16:00 +9°C° 0 mm 1 mps 609 mmHg 14%
    17:00 +6°C° 0 mm 0 mps 608 mmHg 17%
    18:00 +6°C° 0 mm 1 mps 609 mmHg 17%
    19:00 +6°C° 0 mm 1 mps 609 mmHg 17%
    20:00 +5°C° 0 mm 1 mps 609 mmHg 18%
    21:00 +4°C° 0 mm 1 mps 609 mmHg 18%
    22:00 +4°C° 0 mm 1 mps 608 mmHg 18%
    23:00 +4°C° 0 mm 1 mps 608 mmHg 18%

    Tomorrow, 21 November, Tuesday

    Time Temperature Precipitation Wind Pressure Humidity
    00:00 +3°C° 0 mm 1 mps 608 mmHg 18%
    01:00 +3°C° 0 mm 1 mps 608 mmHg 18%
    02:00 +3°C° 0 mm 1 mps 607 mmHg 18%
    03:00 +2°C° 0 mm 1 mps 607 mmHg 18%
    04:00 +2°C° 0 mm 1 mps 607 mmHg 18%
    05:00 +2°C° 0 mm 1 mps 607 mmHg 17%
    06:00 +1°C° 0 mm 2 mps 607 mmHg 17%
    07:00 +2°C° 0 mm 2 mps 607 mmHg 16%
    08:00 +2°C° 0 mm 2 mps 608 mmHg 16%
    09:00 +6°C° 0 mm 1 mps 609 mmHg 14%
    10:00 +8°C° 0 mm 1 mps 609 mmHg 13%
    11:00 +10°C° 0 mm 1 mps 610 mmHg 11%
    12:00 +11°C° 0 mm 1 mps 610 mmHg 10%
    13:00 +11°C° 0 mm 1 mps 609 mmHg 10%
    14:00 +12°C° 0 mm 1 mps 609 mmHg 9%
    15:00 +11°C° 0 mm 1 mps 609 mmHg 11%
    16:00 +9°C° 0 mm 1 mps 608 mmHg 12%
    17:00 +7°C° 0 mm 0 mps 607 mmHg 14%
    18:00 +7°C° 0 mm 1 mps 607 mmHg 14%
    19:00 +6°C° 0 mm 1 mps 607 mmHg 15%
    20:00 +5°C° 0 mm 1 mps 607 mmHg 15%
    21:00 +4°C° 0 mm 1 mps 607 mmHg 15%
    22:00 +4°C° 0 mm 1 mps 607 mmHg 15%
    23:00 +4°C° 0 mm 1 mps 606 mmHg 16%

    Day after tomorrow, 22 November, Wednesday

    Time Temperature Precipitation Wind Pressure Humidity
    00:00 +3°C° 0 mm 1 mps 606 mmHg 16%
    01:00 +3°C° 0 mm 1 mps 606 mmHg 17%
    02:00 +2°C° 0 mm 1 mps 605 mmHg 18%
    03:00 +1°C° 0 mm 0 mps 605 mmHg 19%
    04:00 +1°C° 0 mm 0 mps 605 mmHg 19%
    05:00 0°C° 0 mm 0 mps 604 mmHg 20%
    06:00 +2°C° 0 mm 1 mps 605 mmHg 18%
    07:00 +3°C° 0 mm 1 mps 605 mmHg 16%
    08:00 +3°C° 0 mm 1 mps 606 mmHg 14%
    09:00 +6°C° 0 mm 1 mps 607 mmHg 12%
    10:00 +8°C° 0 mm 1 mps 608 mmHg 11%
    11:00 +11°C° 0 mm 1 mps 609 mmHg 9%
    12:00 +11°C° 0 mm 1 mps 609 mmHg 9%
    13:00 +12°C° 0 mm 1 mps 609 mmHg 9%
    14:00 +13°C° 0 mm 1 mps 609 mmHg 10%
    15:00 +11°C° 0 mm 1 mps 608 mmHg 11%
    16:00 +9°C° 0 mm 1 mps 607 mmHg 13%
    17:00 +7°C° 0 mm 0 mps 607 mmHg 15%
    18:00 +6°C° 0 mm 0 mps 606 mmHg 15%
    19:00 +5°C° 0 mm 0 mps 606 mmHg 16%
    20:00 +4°C° 0 mm 0 mps 606 mmHg 16%
    21:00 +4°C° 0 mm 0 mps 606 mmHg 16%
    22:00 +5°C° 0 mm 1 mps 606 mmHg 16%
    23:00 +5°C° 0 mm 1 mps 606 mmHg 16%

    23 November, Thursday

    Time Temperature Precipitation Wind Pressure Humidity
    00:00 +5°C° 0 mm 1 mps 606 mmHg 16%
    01:00 +5°C° 0 mm 1 mps 605 mmHg 16%
    02:00 +4°C° 0 mm 1 mps 605 mmHg 16%
    03:00 +4°C° 0 mm 1 mps 605 mmHg 16%
    04:00 +4°C° 0 mm 1 mps 604 mmHg 16%
    05:00 +3°C° 0 mm 1 mps 604 mmHg 16%
    06:00 +4°C° 0 mm 1 mps 604 mmHg 16%
    07:00 +4°C° 0 mm 1 mps 605 mmHg 16%
    08:00 +5°C° 0 mm 1 mps 605 mmHg 16%
    09:00 +7°C° 0 mm 1 mps 606 mmHg 13%
    10:00 +9°C° 0 mm 1 mps 607 mmHg 11%
    11:00 +11°C° 0 mm 1 mps 608 mmHg 9%
    12:00 +12°C° 0 mm 1 mps 608 mmHg 10%
    13:00 +12°C° 0 mm 1 mps 608 mmHg 10%
    14:00 +13°C° 0 mm 1 mps 608 mmHg 11%
    15:00 +12°C° 0 mm 1 mps 607 mmHg 12%
    16:00 +11°C° 0 mm 1 mps 607 mmHg 14%
    17:00 +10°C° 0 mm 1 mps 607 mmHg 16%
    18:00 +10°C° 0 mm 1 mps 607 mmHg 17%
    19:00 +9°C° 0 mm 1 mps 607 mmHg 18%
    20:00 +8°C° 0 mm 1 mps 607 mmHg 19%
    21:00 +7°C° 0 mm 1 mps 607 mmHg 20%
    22:00 +7°C° 0 mm 1 mps 607 mmHg 22%
    23:00 +6°C° 0 mm 1 mps 607 mmHg 23%

    24 November, Friday

    Time Temperature Precipitation Wind Pressure Humidity
    00:00 +6°C° 0 mm 1 mps 607 mmHg 24%
    01:00 +5°C° 0 mm 1 mps 606 mmHg 26%
    02:00 +5°C° 0 mm 1 mps 606 mmHg 27%
    03:00 +5°C° 0 mm 1 mps 606 mmHg 28%
    04:00 +4°C° 0 mm 1 mps 606 mmHg 30%
    05:00 +4°C° 0 mm 1 mps 605 mmHg 31%
    06:00 +4°C° 0 mm 1 mps 606 mmHg 31%
    07:00 +5°C° 0 mm 1 mps 606 mmHg 30%
    08:00 +5°C° 0 mm 1 mps 607 mmHg 30%
    09:00 +7°C° 0 mm 1 mps 608 mmHg 27%
    10:00 +9°C° 0 mm 1 mps 609 mmHg 25%
    11:00 +11°C° 0 mm 1 mps 610 mmHg 22%
    12:00 +12°C° 0 mm 1 mps 609 mmHg 21%
    13:00 +12°C° 0 mm 1 mps 609 mmHg 21%
    14:00 +13°C° 0 mm 1 mps 609 mmHg 21%
    15:00 +12°C° 0 mm 1 mps 608 mmHg 23%
    16:00 +11°C° 0 mm 1 mps 608 mmHg 24%
    17:00 +10°C° 0 mm 1 mps 608 mmHg 26%
    18:00 +10°C° 0 mm 1 mps 608 mmHg 27%
    19:00 +9°C° 0 mm 1 mps 608 mmHg 28%
    20:00 +8°C° 0 mm 1 mps 608 mmHg 29%
    21:00 +8°C° 0 mm 1 mps 608 mmHg 30%
    22:00 +8°C° 0 mm 1 mps 608 mmHg 31%
    23:00 +7°C° 0 mm 1 mps 608 mmHg 32%

    25 November, Saturday

    Time Temperature Precipitation Wind Pressure Humidity
    00:00 +7°C° 0 mm 1 mps 608 mmHg 33%
    01:00 +7°C° 0 mm 1 mps 607 mmHg 34%
    02:00 +7°C° 0 mm 1 mps 607 mmHg 35%
    03:00 +7°C° 0 mm 1 mps 607 mmHg 37%
    04:00 +6°C° 0 mm 1 mps 607 mmHg 39%
    05:00 +6°C° 0 mm 1 mps 606 mmHg 40%
    06:00 +6°C° 0 mm 1 mps 607 mmHg 41%
    07:00 +6°C° 0 mm 1 mps 607 mmHg 41%
    08:00 +6°C° 0 mm 1 mps 607 mmHg 42%
    09:00 +7°C° 0 mm 1 mps 608 mmHg 38%
    10:00 +9°C° 0 mm 1 mps 608 mmHg 35%
    11:00 +11°C° 0 mm 1 mps 609 mmHg 32%
    12:00 +11°C° 0 mm 1 mps 609 mmHg 31%
    13:00 +12°C° 0 mm 2 mps 608 mmHg 31%
    14:00 +12°C° 0 mm 2 mps 608 mmHg 30%
    15:00 +12°C° 0 mm 2 mps 608 mmHg 32%
    16:00 +10°C° 0 mm 2 mps 608 mmHg 34%
    17:00 +10°C° 0 mm 1 mps 608 mmHg 36%
    18:00 +10°C° 0 mm 1 mps 608 mmHg 37%
    19:00 +9°C° 0 mm 1 mps 608 mmHg 39%
    20:00 +8°C° 0 mm 1 mps 608 mmHg 41%
    21:00 +7°C° 0 mm 1 mps 608 mmHg 43%
    22:00 +7°C° 0 mm 1 mps 608 mmHg 44%
    23:00 +7°C° 0 mm 1 mps 608 mmHg 46%
    Show more